Theta_e
345 343 328 316 315 313 315 314 315 315 316 315 316 318 318 319 320 320 320 320 320 323 328 330 330 330 331 332 333 333 334 335 335 335 336 336 336 335 335 335 336 335 335 336 335 332 328 327 326 327 328 328 324 320 320 321 322 322 323 323 323 322 319 319 322 322 323 323 319 312 313 320 320 325 331 333 337 335 333 332 328 322 323 326 326
343 344 330 317 315 313 314 314 315 315 316 315 316 318 318 319 319 321 322 322 325 330 333 334 334 333 333 333 334 335 335 336 336 336 336 336 336 335 335 334 334 334 335 335 334 330 325 326 325 326 330 329 324 319 316 314 313 313 315 315 314 315 319 325 326 324 323 325 325 318 311 315 319 325 333 336 336 334 332 332 328 320 316 317 319
343 343 329 318 314 313 314 314 315 315 316 316 317 318 318 319 320 321 323 326 330 334 335 334 334 334 333 334 334 336 336 336 336 336 336 336 336 335 335 334 334 333 334 334 333 328 323 323 323 325 329 328 323 318 313 311 309 309 309 309 313 320 327 330 329 327 325 324 325 324 315 310 317 324 331 335 334 330 329 329 325 317 313 314 315
344 341 329 318 314 313 314 314 314 315 316 316 317 317 319 320 321 323 325 330 333 335 335 334 333 333 334 334 335 335 336 336 336 336 336 337 336 335 334 334 334 332 332 332 330 325 319 320 323 326 327 323 319 314 309 307 307 307 309 314 321 329 331 332 332 331 329 326 323 324 322 312 313 322 327 330 329 325 326 325 320 314 312 312 312
343 339 328 318 315 313 313 314 314 315 315 317 317 318 320 320 322 324 328 332 334 334 334 334 334 334 335 335 335 335 335 336 336 336 336 336 336 335 334 333 333 332 331 330 329 324 318 320 325 325 320 315 312 308 307 307 307 309 315 323 329 331 332 333 333 333 332 330 325 321 325 318 310 317 322 324 324 322 323 321 316 312 311 311 311
344 339 327 318 315 313 313 314 314 315 316 317 317 319 320 321 323 326 330 333 334 334 334 334 334 335 335 335 335 335 335 335 336 336 336 335 334 334 334 331 329 328 327 325 324 324 321 323 323 317 312 309 308 307 307 307 308 312 321 328 330 331 332 333 333 334 334 332 330 323 324 321 310 311 316 318 319 319 320 318 314 311 310 311 310
345 340 328 318 314 313 314 313 315 315 315 317 317 319 320 323 324 327 331 334 334 334 334 334 334 334 335 335 335 334 335 336 336 336 336 335 333 332 330 328 326 322 320 319 319 322 323 321 315 310 308 308 308 307 307 308 313 319 326 330 331 332 332 333 333 333 334 334 332 325 322 319 311 311 313 314 316 317 317 315 312 310 310 310 310
346 340 327 318 314 313 313 313 314 315 316 317 318 320 321 323 325 328 332 334 334 334 334 334 334 334 334 334 334 334 335 336 336 336 335 333 331 330 328 327 324 317 313 313 314 318 318 314 310 308 308 309 308 308 307 310 319 326 329 332 332 332 333 334 334 333 332 331 327 322 317 313 311 313 313 314 314 314 314 312 311 310 310 310 310
344 337 326 318 314 313 313 314 314 315 316 317 319 321 322 324 326 329 333 334 335 335 335 334 334 334 334 334 334 334 335 335 335 335 334 332 331 329 327 325 319 312 311 312 312 313 313 310 309 309 309 309 309 309 308 312 321 327 329 331 331 331 332 332 333 333 331 329 324 320 315 310 311 312 312 312 312 312 311 311 310 310 310 310 310
341 334 325 318 314 313 312 313 314 315 316 318 319 321 322 324 327 330 333 334 334 335 335 335 334 334 334 333 333 333 334 334 334 334 332 330 329 326 323 318 312 310 311 312 312 311 310 309 310 310 310 310 310 310 310 317 323 326 328 329 330 330 330 331 332 332 331 330 325 320 314 309 310 310 311 311 311 311 310 311 311 311 311 311 311
340 333 325 317 314 313 313 313 314 315 317 318 319 321 322 324 329 332 333 334 334 335 335 335 334 334 334 333 333 332 332 332 332 331 329 327 324 320 316 312 308 309 312 312 311 310 310 310 311 311 311 311 311 311 312 319 325 327 329 330 331 331 331 331 332 332 332 330 324 319 314 310 311 311 311 312 312 311 311 311 312 312 311 311 311
339 332 324 318 313 312 312 313 314 315 317 318 319 321 323 327 331 333 333 334 334 335 335 335 335 334 334 333 331 329 327 326 325 324 322 320 318 313 310 309 308 310 312 311 310 310 310 310 311 312 312 312 313 313 314 320 325 328 329 330 331 331 331 331 332 332 332 329 321 316 313 311 312 311 312 312 312 311 311 311 311 311 311 311 311
337 331 325 318 313 312 312 313 314 315 317 318 319 321 325 330 333 333 334 334 334 334 334 335 335 335 334 332 329 325 322 319 317 315 314 313 311 309 308 309 309 311 311 310 310 310 311 311 312 312 313 313 313 313 315 320 324 327 329 331 332 332 331 331 332 332 332 329 321 315 312 311 311 311 312 311 312 311 311 311 311 311 311 311 311
337 331 325 319 314 312 312 313 314 315 318 319 320 323 327 331 333 334 334 334 334 333 334 335 335 334 333 330 328 324 318 314 311 310 310 309 309 309 309 309 310 311 310 310 310 311 311 312 312 312 313 312 312 313 315 319 323 326 329 331 331 331 331 330 331 331 331 330 327 323 315 313 312 311 312 311 311 312 311 311 311 311 311 311 311
339 333 325 319 314 312 312 313 315 316 318 319 321 324 328 330 332 334 334 334 333 333 334 335 334 333 332 329 327 322 315 311 309 308 308 308 309 309 309 310 311 311 310 311 311 312 312 312 312 312 312 312 312 312 314 317 320 324 326 328 329 329 330 331 331 331 333 332 330 327 319 315 316 314 314 313 312 312 311 311 312 312 311 311 311
343 337 328 320 314 312 312 314 315 316 317 318 321 325 329 330 332 334 334 334 333 333 334 334 333 333 332 330 326 319 313 309 308 308 309 309 309 310 310 310 311 311 311 311 312 312 312 312 312 312 312 312 312 313 314 315 318 321 324 327 329 331 332 333 333 333 333 332 330 329 323 319 318 317 317 316 316 314 313 312 312 312 312 312 311
344 339 330 321 315 312 311 313 315 316 317 318 320 324 328 330 333 335 335 333 333 333 334 334 333 333 332 329 324 318 312 309 308 309 309 309 309 310 311 311 312 312 311 312 312 313 313 312 312 312 312 312 313 313 314 315 316 319 322 325 329 332 333 333 333 332 332 331 328 327 326 323 319 317 318 318 318 318 317 316 314 313 312 311 311
343 339 331 322 316 312 311 313 315 316 317 318 320 324 329 330 333 335 334 332 332 333 333 334 334 333 330 325 319 315 311 309 309 309 309 309 309 310 311 312 313 313 313 313 313 313 313 313 312 312 313 313 313 314 315 316 316 318 320 323 325 328 330 331 331 331 331 330 328 327 327 324 320 317 318 317 318 318 319 319 318 317 315 313 312
342 337 330 324 318 313 312 312 313 314 316 318 320 327 331 330 333 335 333 332 333 333 333 333 332 329 324 319 315 312 310 309 309 309 309 309 309 309 310 311 313 314 314 314 313 314 314 313 313 313 313 313 314 314 315 316 316 318 319 320 322 326 330 332 333 333 332 332 331 330 328 323 320 318 318 318 318 318 319 320 320 320 320 319 316
341 336 331 326 320 316 313 311 312 312 314 316 319 327 331 331 333 333 332 332 333 333 332 332 329 324 320 318 317 315 313 312 311 309 309 309 310 310 310 310 311 314 315 315 315 315 315 315 315 315 315 315 315 316 316 317 317 318 318 319 321 324 329 331 332 333 332 333 331 331 329 326 323 319 317 318 319 319 319 319 320 321 322 322 321
340 336 333 328 323 320 317 313 312 311 312 314 316 324 330 332 333 332 331 332 333 332 331 330 326 323 324 326 325 324 322 322 320 314 311 310 310 310 310 310 310 312 314 316 316 316 317 317 317 317 317 317 317 318 317 318 318 318 319 319 318 318 323 328 331 332 332 332 331 330 330 330 330 324 319 319 320 320 320 319 320 321 322 323 323
339 336 335 330 325 324 321 318 315 312 311 312 314 321 328 332 333 332 332 332 332 331 330 327 324 328 332 333 332 330 328 329 327 320 317 314 310 310 310 310 310 310 311 313 315 317 318 318 319 319 319 319 318 318 317 319 322 323 324 324 323 320 319 323 329 333 332 331 330 331 331 331 332 327 321 321 321 321 321 321 320 320 322 323 324
338 336 334 330 327 327 326 324 321 317 313 312 313 318 324 329 332 332 331 332 332 330 328 325 326 334 335 334 333 330 326 326 325 319 318 317 315 315 314 313 312 311 310 310 312 313 314 315 316 316 316 316 316 316 316 318 324 327 329 329 329 327 323 323 327 330 332 332 331 331 332 331 331 329 324 322 322 321 323 323 323 321 321 322 324
337 336 332 330 331 331 330 328 326 324 319 315 313 314 319 327 330 332 332 332 330 328 329 325 326 333 334 334 332 325 321 321 321 317 320 322 321 321 322 321 318 315 313 312 311 310 310 311 312 314 314 314 314 313 313 315 321 327 330 330 330 330 329 328 328 329 332 332 332 331 332 332 331 330 328 324 323 322 323 325 325 324 322 322 323
340 339 336 336 338 336 334 332 332 331 327 321 317 314 315 322 329 332 333 331 328 329 332 330 327 330 332 333 329 322 318 318 321 319 320 323 325 327 328 326 323 320 318 317 315 313 315 316 317 320 322 323 321 319 319 320 323 325 329 330 330 330 331 331 330 331 333 332 332 332 332 332 331 331 330 327 324 323 323 325 326 327 325 323 323
342 342 340 341 340 339 337 336 337 336 332 326 321 316 312 317 327 331 330 328 330 332 335 334 334 333 331 331 326 321 319 319 325 325 320 324 329 332 333 331 327 326 325 325 323 321 324 325 324 326 327 328 331 330 328 328 329 329 330 330 330 329 331 332 331 332 333 332 332 332 332 332 332 333 332 330 327 325 324 325 326 327 327 325 324
343 342 342 342 342 341 340 340 340 338 334 328 324 320 314 316 324 330 330 329 332 332 332 335 336 336 333 330 324 319 322 325 330 330 327 327 330 333 335 334 331 331 332 332 330 328 329 329 328 329 328 329 332 333 332 331 331 330 330 331 331 330 330 331 331 331 332 332 332 332 332 332 333 333 334 332 329 327 325 325 325 326 327 328 326
343 343 343 343 343 342 342 342 341 338 335 332 330 328 324 323 325 330 331 329 330 331 332 334 336 336 331 326 324 323 327 331 331 332 332 332 332 334 335 334 333 334 334 334 335 334 332 332 332 331 331 330 331 332 333 333 332 330 330 331 332 331 330 330 330 331 331 331 332 332 332 332 333 333 333 332 330 329 328 325 324 325 326 327 328
344 343 344 344 343 343 343 342 340 338 336 335 335 333 333 332 329 331 333 332 331 332 334 333 333 334 327 322 328 328 329 333 333 334 334 333 334 335 336 336 336 336 336 335 336 336 334 334 334 333 333 332 332 332 332 334 334 332 332 332 331 331 331 331 331 331 331 331 331 331 332 332 332 331 331 331 331 331 330 327 325 325 326 327 328
342 343 343 344 343 342 341 340 339 336 336 337 337 335 335 335 333 333 334 335 334 334 334 333 333 331 324 324 330 329 330 334 335 334 334 333 333 334 335 336 336 337 336 335 335 334 333 333 333 334 334 334 334 334 333 334 334 333 333 333 333 333 333 333 333 332 332 331 332 332 332 332 332 330 329 330 331 331 330 328 326 325 326 327 328
342 343 343 342 342 341 339 339 338 336 336 337 337 336 336 335 334 334 334 335 334 334 334 333 332 327 324 328 330 328 331 334 333 334 334 333 333 333 334 334 335 336 335 334 334 333 333 333 333 334 333 334 334 334 333 333 334 334 334 334 334 334 334 334 334 333 333 333 333 333 333 334 334 333 332 331 330 329 328 326 323 325 328 327 328
341 342 342 341 340 339 338 339 338 335 335 336 336 336 336 334 334 334 334 334 333 333 335 332 328 325 326 328 329 330 332 333 334 334 334 334 334 333 333 334 334 335 335 334 334 334 333 333 334 333 333 333 332 333 333 333 333 334 334 334 334 334 334 335 335 334 334 334 333 333 333 334 334 335 335 334 332 329 327 325 322 324 328 327 327
340 341 341 339 338 337 337 338 336 335 335 334 335 335 335 334 333 334 334 334 335 333 332 330 327 329 330 330 331 332 333 334 334 334 333 334 334 333 333 334 334 334 334 334 334 333 333 333 333 333 333 332 332 332 332 332 332 333 333 333 333 334 334 334 335 335 334 334 333 333 333 333 334 335 335 334 333 332 330 328 325 323 324 324 327
340 340 339 337 336 336 336 335 335 335 334 334 334 333 332 332 333 334 333 333 334 332 331 331 333 335 335 333 333 333 334 334 333 332 331 332 333 333 334 335 334 334 333 332 333 332 332 334 334 333 333 332 332 332 332 332 332 332 332 333 333 333 333 334 334 334 334 334 334 334 333 333 334 334 334 334 333 333 332 331 329 326 324 323 325
340 339 339 337 336 336 335 334 335 335 334 333 332 331 331 332 332 332 330 330 331 332 334 335 335 336 335 335 334 334 334 333 333 333 332 333 334 334 335 335 334 333 332 332 333 333 334 334 335 334 333 332 332 332 332 333 332 332 332 331 332 332 332 332 333 333 333 333 333 333 334 334 334 334 334 334 333 333 332 331 331 330 328 325 323
338 337 338 337 335 336 334 333 334 335 334 331 331 333 333 332 332 332 330 331 333 335 336 336 335 336 336 335 335 335 334 333 334 335 335 335 335 335 336 336 334 333 333 333 333 334 335 335 335 335 334 332 331 331 332 332 332 332 331 331 330 331 331 331 330 331 332 332 332 332 333 333 333 333 333 333 333 333 333 332 331 331 330 329 326
336 337 337 337 336 335 333 333 333 333 332 331 333 334 334 334 334 335 334 334 336 336 336 335 336 336 335 335 334 334 333 334 335 335 336 336 336 336 335 335 334 334 334 334 334 335 335 335 335 334 333 332 331 331 331 331 332 331 331 331 330 330 330 330 330 330 331 331 331 332 332 332 332 332 333 333 333 333 333 333 331 331 331 331 329
336 336 337 336 336 333 330 330 330 330 330 331 334 335 335 336 336 336 336 336 336 336 335 335 336 335 335 334 333 334 333 333 335 335 335 336 337 336 335 335 334 334 334 335 335 336 335 334 333 333 332 332 332 332 332 332 332 331 331 331 331 330 330 330 331 331 331 331 331 332 331 331 331 331 332 332 333 333 333 333 332 331 332 332 331
336 336 336 335 333 329 328 328 328 329 331 332 333 335 336 336 337 336 336 337 336 335 335 336 336 335 335 335 333 333 332 331 334 335 334 335 337 336 335 335 334 334 335 335 335 334 334 333 333 333 333 332 333 333 333 332 332 332 331 331 331 330 330 330 332 332 332 331 331 331 331 331 331 330 331 331 331 332 332 332 332 332 332 332 332
336 336 335 334 331 328 328 328 329 331 333 333 333 335 337 336 337 336 335 336 336 335 335 335 335 334 334 334 333 333 331 331 334 335 335 336 336 335 335 334 334 334 334 335 334 332 333 333 333 333 333 333 333 334 334 333 332 332 331 331 331 330 330 331 332 332 332 331 330 330 330 330 330 330 330 329 330 330 331 332 332 332 332 331 331
336 335 334 333 331 330 331 331 332 333 334 335 335 336 336 336 336 335 334 335 335 334 335 334 333 332 332 332 332 334 334 335 336 336 336 336 335 335 334 334 334 334 334 334 332 332 333 333 333 333 333 332 333 334 334 333 332 332 331 330 330 330 330 331 333 333 331 330 330 330 330 330 330 330 330 329 329 329 330 330 331 331 331 331 331
336 335 334 333 333 332 333 333 334 335 336 336 336 335 334 335 335 335 334 334 335 334 335 334 333 332 331 331 332 334 336 336 336 336 336 336 335 335 335 334 333 332 332 331 329 330 331 331 331 330 331 331 332 333 333 333 332 332 331 330 329 329 330 333 333 332 330 330 330 330 330 331 331 331 331 330 330 330 330 330 330 330 330 331 331
335 335 334 334 335 334 334 334 335 335 336 335 335 334 334 334 335 334 333 333 334 334 334 333 333 333 332 332 334 335 336 336 335 335 335 335 335 335 335 334 332 330 329 328 327 328 329 330 330 329 329 329 331 332 332 333 333 332 331 331 330 329 330 333 331 330 330 331 330 330 331 331 331 331 331 331 331 331 330 330 330 330 330 330 330
335 335 334 335 335 336 335 335 335 335 335 335 335 334 334 334 334 333 332 332 333 333 334 334 334 333 333 333 334 334 335 334 334 334 335 335 335 335 334 333 331 330 328 326 325 326 327 328 329 328 328 327 327 329 330 332 333 332 331 331 331 331 331 331 329 328 330 330 330 330 331 331 331 332 332 332 331 330 330 330 330 329 329 329 329
335 335 335 336 336 336 336 335 335 335 335 335 335 334 334 333 331 330 330 331 333 334 334 335 335 334 333 333 333 333 334 333 333 333 333 332 333 333 333 332 331 329 326 323 323 324 325 326 326 326 326 325 324 325 327 330 332 332 331 331 330 331 331 330 329 328 328 328 329 330 330 331 332 332 332 332 331 331 330 330 330 330 330 329 329
336 336 336 336 336 336 336 335 335 335 335 335 334 334 333 331 329 329 329 329 332 334 334 334 334 334 334 334 334 333 332 332 331 331 330 330 330 330 330 329 327 325 322 320 319 320 321 322 323 322 322 322 322 323 324 326 328 330 331 330 329 329 328 328 329 328 327 327 327 328 329 330 331 331 331 331 331 331 331 331 330 330 330 330 330
335 336 336 336 336 336 336 335 335 335 334 334 334 333 332 332 331 331 329 328 330 333 334 334 334 334 334 333 333 332 331 329 329 328 327 326 325 324 324 323 321 320 320 318 317 318 318 319 319 318 317 317 318 318 319 320 323 325 327 328 328 328 327 327 326 326 326 325 324 326 327 327 329 329 330 331 331 331 331 331 331 331 330 330 330
335 336 336 336 335 335 336 335 334 335 334 333 334 333 332 332 331 331 331 331 332 333 334 334 334 333 333 332 332 331 329 328 326 325 323 322 321 320 319 319 318 319 319 318 317 316 316 316 315 315 315 315 316 316 317 317 318 320 320 322 323 324 325 325 324 323 323 323 323 324 324 324 324 326 328 329 330 330 330 331 331 331 330 329 329
336 336 336 336 335 336 336 335 334 335 334 333 333 333 332 330 330 333 334 334 334 334 334 334 333 333 332 331 331 329 327 325 323 321 320 319 319 319 319 318 318 317 316 316 315 314 314 313 313 313 313 314 314 314 314 315 316 316 316 316 317 318 319 320 319 319 320 321 322 322 322 320 318 319 322 325 328 330 330 330 330 330 329 329 329
336 336 336 336 336 336 336 335 335 334 333 332 332 332 333 332 332 334 334 334 334 333 333 333 332 331 330 329 328 326 324 322 320 319 319 319 319 318 317 317 315 315 314 314 313 313 313 312 312 313 312 312 312 312 313 313 314 314 314 314 314 315 315 316 316 317 318 319 319 319 319 319 318 316 315 317 321 325 327 328 329 328 328 329 329
336 336 336 336 336 336 336 336 335 334 333 333 332 332 333 333 333 334 334 333 333 332 332 331 331 330 329 328 327 325 322 319 319 319 318 318 316 315 314 314 313 313 313 312 312 312 312 311 311 311 310 310 311 311 311 312 312 312 312 312 313 314 315 315 315 316 317 317 317 316 316 316 316 316 314 314 315 318 320 322 326 326 326 328 328
Wind_Speed
17 14 14 15 14 14 14 13 13 12 12 12 13 14 17 18 19 19 19 19 19 18 17 17 17 16 16 16 15 15 16 16 15 15 15 15 14 14 14 14 13 13 13 13 13 12 12 12 12 12 11 10 9 9 8 7 7 6 6 6 8 9 10 12 13 15 19 21 20 14 8 9 12 14 13 11 11 10 10 10 10 10 11 11 11
21 17 15 16 15 14 14 14 13 13 13 13 13 14 16 18 20 20 20 20 19 18 18 17 17 16 16 16 15 15 15 15 15 15 15 14 14 14 13 13 13 12 12 11 11 11 11 11 11 11 10 10 9 8 8 8 7 6 6 7 9 11 14 16 16 17 19 21 22 19 12 9 11 13 13 11 10 9 8 9 9 9 10 10 9
21 19 17 17 16 15 14 14 13 13 13 14 14 14 16 18 20 21 21 20 19 18 18 17 16 16 16 15 15 15 14 14 14 14 14 14 14 13 12 12 12 11 11 10 9 9 9 10 9 9 9 9 9 9 9 9 9 9 9 11 14 17 19 19 18 18 19 20 20 21 16 10 9 11 11 10 8 7 8 8 9 10 10 10 10
20 20 19 18 17 16 15 14 14 13 13 14 15 15 17 19 20 21 21 20 19 18 17 17 16 16 15 15 14 14 13 13 14 13 13 13 12 11 11 12 11 10 9 9 8 7 7 8 9 9 8 8 9 10 12 12 13 14 16 18 20 21 20 19 18 17 18 18 19 20 18 12 8 8 8 7 5 6 7 8 9 10 10 10 10
19 20 19 19 19 16 15 15 15 14 14 15 16 16 17 19 20 21 20 19 18 18 17 16 16 16 15 15 14 13 12 12 12 12 13 12 11 10 11 11 11 9 9 8 8 8 7 8 9 9 8 9 11 12 14 15 17 20 22 23 23 21 19 18 17 16 16 16 16 17 18 14 7 6 6 5 4 5 6 7 8 9 10 10 10
18 21 20 20 19 18 16 15 15 15 15 16 17 17 18 19 20 20 20 18 18 17 16 16 15 15 14 14 13 12 12 11 11 11 11 11 10 10 10 9 9 9 8 8 8 8 8 9 9 9 10 11 13 14 16 19 20 22 24 24 24 21 19 18 16 15 14 12 12 13 15 13 7 5 5 4 4 4 5 6 7 8 9 9 9
17 20 21 20 20 19 17 16 16 16 16 17 18 19 20 20 20 20 19 18 18 17 16 15 15 15 14 13 12 12 11 11 11 10 10 10 10 10 9 8 8 7 6 7 7 8 9 9 9 10 12 13 15 16 18 20 22 24 25 25 23 20 19 18 16 14 11 9 8 10 13 11 7 6 5 4 4 4 5 5 6 8 8 8 8
18 21 22 21 20 20 18 17 16 16 16 18 19 20 21 20 20 19 18 18 18 17 16 15 15 14 13 12 12 11 11 11 10 9 9 9 9 8 7 7 7 7 7 7 8 9 9 10 10 12 13 14 15 16 18 21 24 25 25 23 21 19 18 17 15 12 10 9 9 11 12 9 7 7 6 5 5 5 4 5 6 7 7 8 7
19 22 22 21 21 20 18 17 17 17 17 18 19 21 21 21 20 19 18 18 18 17 16 15 14 13 12 11 11 11 10 10 9 8 8 7 6 6 6 7 7 7 8 9 10 10 10 11 11 13 13 14 15 15 18 22 24 24 23 22 21 19 18 16 14 10 8 8 9 10 10 8 8 7 7 6 6 6 5 5 6 6 7 7 7
20 22 22 21 22 21 19 18 17 18 18 19 20 21 22 21 20 19 18 18 18 17 16 15 13 13 12 11 11 10 10 9 8 7 6 5 5 5 5 6 6 7 8 10 11 11 11 12 12 13 13 14 14 15 18 22 23 23 23 22 21 19 17 16 14 10 8 5 6 8 8 8 8 7 7 6 6 6 5 5 5 5 6 6 5
21 23 23 22 22 21 20 19 18 18 19 20 21 21 22 21 20 19 19 18 17 17 16 14 13 12 11 11 10 9 9 8 6 5 4 4 4 4 5 5 7 8 9 10 12 12 12 12 13 13 13 13 13 14 18 20 21 22 22 21 20 19 16 14 13 10 8 5 6 9 8 7 7 6 6 5 5 6 5 5 5 5 5 4 4
23 25 23 23 23 22 21 20 19 19 20 21 22 22 22 21 20 19 19 18 17 16 15 14 12 11 11 10 9 8 7 6 5 4 3 3 4 5 5 6 8 8 9 11 11 12 12 12 13 13 13 13 13 14 16 18 19 21 22 21 20 18 16 14 10 8 7 7 9 10 8 7 6 6 5 5 5 5 4 4 4 4 4 3 3
25 26 24 23 24 23 22 21 20 19 20 21 22 22 21 21 20 20 19 18 17 16 15 13 12 11 10 8 7 7 6 5 5 4 4 4 5 6 7 8 8 9 9 11 11 11 12 12 12 13 13 13 13 14 14 16 17 20 20 20 19 18 16 14 9 6 7 8 9 9 8 7 6 6 5 5 4 4 3 3 3 3 3 3 4
26 26 24 24 24 24 23 22 21 20 20 21 22 22 21 21 20 20 18 18 17 16 14 13 11 10 8 7 6 6 5 5 5 5 6 6 7 7 8 9 9 9 10 10 11 11 11 11 11 12 12 13 12 13 14 14 15 16 18 17 17 17 16 13 9 5 5 6 7 8 7 6 6 5 5 6 5 4 3 3 3 4 4 4 5
23 25 23 24 24 25 24 23 22 21 21 21 22 22 22 21 20 19 18 17 16 15 13 12 10 9 8 6 5 5 6 6 7 7 7 7 7 8 8 9 9 9 10 10 10 10 10 10 10 11 11 11 12 12 13 12 12 13 14 15 15 15 15 13 8 4 2 6 6 6 6 6 6 5 5 6 6 6 5 5 5 5 4 5 5
19 21 23 24 24 25 24 23 23 22 22 21 23 23 22 21 20 19 18 16 15 14 13 11 9 8 6 5 4 5 6 7 7 7 8 8 8 8 8 9 9 9 9 9 9 9 9 9 9 9 10 10 10 10 10 10 10 10 10 12 14 14 13 12 9 3 1 4 5 5 5 7 7 7 7 6 7 7 7 7 7 7 7 6 6
17 19 23 23 24 25 25 24 23 22 21 20 22 23 22 21 20 19 17 16 15 14 12 10 8 7 5 4 4 5 7 7 7 7 7 7 8 8 8 8 9 8 9 9 8 8 8 8 7 8 8 8 9 8 8 8 8 8 9 10 11 11 10 11 9 3 1 4 6 5 6 8 8 8 8 8 8 8 8 8 8 9 9 9 9
17 19 22 23 24 25 25 25 24 22 22 21 22 23 22 21 20 18 17 16 15 14 12 10 7 6 4 4 5 6 7 8 8 7 7 7 7 7 7 7 8 8 8 8 7 7 7 6 6 6 6 7 7 7 7 6 7 7 7 7 7 8 8 8 8 4 2 5 8 9 9 10 9 9 9 10 10 10 9 9 9 9 10 10 11
19 20 22 23 23 25 25 25 24 23 23 22 23 23 21 20 20 18 17 16 15 13 11 9 7 6 6 7 8 8 8 8 8 7 7 7 7 7 7 6 6 7 7 8 7 6 6 5 5 5 4 4 5 5 5 5 5 5 5 5 5 6 7 6 5 3 2 5 10 12 12 11 10 10 10 11 12 12 11 11 11 11 11 10 11
20 22 23 23 23 24 25 24 24 23 23 23 23 23 22 21 19 17 17 16 15 13 10 8 8 8 9 10 10 10 9 9 8 7 7 6 7 6 6 6 5 6 7 7 7 6 6 5 4 4 3 3 3 4 4 3 3 3 3 3 2 3 4 5 5 0 3 7 11 12 12 12 11 12 11 12 12 13 12 12 12 12 12 11 11
22 24 24 23 23 23 24 24 24 23 23 23 23 23 23 21 18 16 16 15 14 12 10 8 8 9 10 10 9 8 9 9 8 7 7 6 6 6 6 6 5 5 5 6 6 6 5 4 3 3 2 2 2 1 2 3 2 2 2 2 2 2 0 3 4 1 3 7 11 12 14 14 14 14 12 12 13 13 13 13 13 13 13 12 12
24 26 26 25 24 23 24 23 23 23 23 22 22 24 24 22 19 17 16 14 13 12 10 9 9 10 9 8 6 5 6 8 8 6 7 7 6 6 5 5 5 5 4 4 5 5 4 4 3 3 3 3 3 3 2 2 2 1 2 4 5 6 5 3 3 2 3 6 9 12 15 15 16 15 12 12 13 13 13 13 14 14 14 14 14
25 28 28 27 24 24 23 22 23 22 21 21 21 23 23 22 20 19 16 15 14 11 10 11 11 10 8 7 5 3 5 7 7 8 8 8 8 6 5 5 4 4 3 4 3 4 4 4 4 4 4 4 5 5 5 5 5 2 3 6 7 7 8 7 4 3 5 8 10 14 15 16 16 15 13 12 13 13 13 13 14 14 14 14 14
27 28 28 26 23 23 23 22 22 21 21 20 20 21 22 22 20 19 17 15 14 13 12 12 12 9 6 5 3 2 5 6 6 6 7 8 8 6 5 4 3 3 2 2 2 2 2 3 2 2 3 4 5 6 7 7 9 7 5 8 8 8 9 9 6 3 8 11 13 15 15 17 16 15 14 13 13 13 12 13 14 14 14 14 14
28 28 26 24 21 21 22 23 22 21 21 20 19 19 20 22 21 19 18 16 15 14 13 12 11 9 6 5 3 2 5 6 4 3 4 5 6 6 5 5 3 2 1 1 1 2 1 1 2 2 3 4 4 4 5 6 8 8 9 11 10 9 10 11 8 5 10 15 15 16 16 18 18 17 16 15 14 13 13 13 13 14 14 13 14
29 29 26 23 21 20 21 22 20 19 19 19 19 18 18 21 21 19 18 16 15 14 13 11 10 8 7 5 4 5 5 6 3 2 3 4 3 4 4 4 3 2 2 3 1 2 1 3 2 3 4 4 5 6 6 7 9 11 12 14 14 13 11 12 9 7 11 14 15 17 18 19 19 18 17 16 16 15 14 13 13 14 15 13 13
30 30 27 25 23 22 21 20 19 18 18 17 17 17 17 18 19 18 17 16 14 12 10 8 7 7 6 3 5 8 7 6 4 1 1 1 1 2 2 3 3 4 4 5 6 5 6 6 4 5 6 5 4 4 6 7 10 13 15 16 16 15 14 13 12 11 13 15 16 17 18 19 19 19 18 18 18 17 16 15 14 15 16 15 13
29 30 29 27 27 25 23 21 19 18 17 16 17 17 17 15 16 17 15 13 11 8 7 6 6 6 5 6 8 9 7 5 4 2 0 2 4 3 2 4 6 6 7 8 9 10 11 10 9 9 9 9 7 6 7 9 9 12 14 15 16 16 15 15 14 14 16 17 18 19 19 21 21 21 20 20 20 19 19 18 17 17 17 17 15
27 30 29 28 29 28 25 21 19 19 18 17 17 16 15 13 13 16 13 9 8 7 5 4 5 5 5 9 10 9 7 6 4 3 2 3 5 5 4 5 6 7 7 9 9 9 10 11 10 11 11 10 10 9 9 10 9 9 11 13 16 16 15 16 16 16 17 18 19 20 22 23 23 23 23 22 21 21 20 20 19 19 19 19 17
24 28 28 29 28 26 24 21 20 19 18 17 16 15 14 12 11 14 13 10 7 6 6 5 5 6 8 12 10 7 5 4 4 4 4 5 6 6 6 6 7 7 7 8 8 8 8 9 9 10 10 10 10 10 10 12 12 12 12 12 14 14 14 16 16 16 17 19 21 22 23 24 24 24 24 23 22 22 22 21 21 20 20 21 20
21 24 25 26 25 23 21 21 21 19 18 17 15 16 16 13 11 12 14 13 10 10 9 8 8 7 11 11 7 5 3 2 2 2 3 4 5 5 5 6 6 6 6 7 7 8 7 7 8 8 9 10 10 10 11 13 15 15 15 14 14 14 14 14 15 14 16 19 21 22 24 25 24 23 22 22 22 23 23 22 23 21 20 22 22
18 21 21 21 22 21 20 21 20 18 18 17 17 17 16 14 12 12 15 14 12 12 12 11 10 10 10 7 4 3 2 2 1 2 2 2 2 3 4 3 3 4 6 6 7 8 7 7 8 8 9 10 10 10 11 12 14 15 15 16 16 16 15 15 14 14 15 17 18 21 22 24 24 23 22 22 22 22 23 24 24 23 20 21 23
14 17 19 19 21 19 18 20 18 17 18 17 17 15 14 14 12 12 15 15 13 12 12 11 9 8 6 4 3 3 1 1 2 2 2 1 2 3 2 2 3 3 4 5 6 7 7 7 7 8 8 9 9 9 10 11 11 12 13 14 15 16 16 17 16 17 17 16 17 19 21 23 23 23 24 24 23 22 23 24 24 23 23 22 23
15 17 18 19 21 17 17 18 16 16 16 15 15 15 16 17 15 15 16 15 13 12 11 9 7 5 5 4 3 3 2 1 1 2 2 2 2 2 2 1 2 3 4 5 5 6 6 7 7 8 8 9 10 10 11 11 11 12 12 12 13 14 15 16 17 18 19 19 19 21 22 23 24 25 25 25 23 22 22 21 20 21 23 24 23
12 12 14 20 22 19 19 18 15 15 14 13 16 17 17 17 17 16 16 15 13 12 10 8 6 6 6 5 4 4 3 2 1 0 1 2 2 1 1 2 1 3 5 5 5 6 6 6 7 8 9 10 11 11 12 12 13 13 13 13 13 13 14 15 15 16 18 19 21 22 24 25 26 27 27 26 24 23 21 20 18 18 21 23 23
11 14 18 24 23 20 21 21 18 16 15 16 18 18 17 16 16 15 15 13 12 11 10 8 7 7 7 6 5 5 6 4 2 1 1 2 2 1 2 2 1 3 4 5 6 6 6 6 8 9 11 12 12 12 12 13 14 14 14 14 14 14 15 15 15 14 15 17 18 19 20 22 23 24 24 25 25 23 22 21 20 18 18 20 21
15 18 21 23 22 20 21 23 21 19 19 18 19 18 16 16 15 14 14 12 11 10 9 9 8 8 8 7 6 5 5 4 2 2 2 2 3 3 2 1 3 4 4 5 5 5 5 7 8 10 12 13 13 13 12 12 13 13 14 14 15 15 14 14 13 13 13 14 15 16 16 17 18 19 20 21 23 23 23 22 21 19 18 19 20
16 17 18 19 20 20 22 23 21 21 21 19 17 17 16 15 14 14 13 12 11 9 10 10 9 8 8 8 6 5 4 4 3 2 2 2 3 3 2 2 4 4 4 4 4 5 6 8 10 11 11 13 13 12 12 12 13 13 13 13 13 13 13 12 11 10 11 11 11 13 14 14 15 16 17 18 20 21 21 21 20 19 19 19 20
19 19 19 20 21 21 22 22 21 22 21 19 18 17 16 14 13 13 12 11 10 10 11 10 10 9 7 6 6 5 4 4 3 3 2 2 3 3 2 3 4 4 3 3 4 5 7 8 10 10 10 10 10 10 11 12 13 13 13 12 12 13 12 10 8 8 8 10 12 13 14 14 15 16 17 17 17 19 20 20 19 19 20 20 21
21 23 22 22 23 22 22 22 22 22 21 20 19 17 15 14 14 13 12 12 12 12 12 11 10 8 7 6 7 6 6 5 4 4 3 3 4 4 3 3 4 4 4 4 5 6 7 9 9 9 9 8 8 8 10 12 13 12 12 12 11 12 10 7 7 7 8 13 15 14 13 13 14 15 15 15 16 18 19 20 20 20 20 20 21
24 25 24 24 24 22 23 24 24 22 20 19 19 17 16 15 15 14 13 14 13 13 13 12 10 8 7 6 6 7 7 6 6 6 6 6 5 6 6 5 6 5 5 5 5 5 7 9 9 9 9 8 7 7 10 12 13 14 13 11 10 9 8 6 5 6 11 14 12 11 13 13 14 14 15 15 15 17 17 18 18 19 20 20 20
27 26 25 25 24 22 24 25 23 21 20 19 18 18 16 14 15 15 15 14 14 13 13 13 12 10 9 7 7 9 9 8 8 8 7 7 7 8 8 8 7 6 6 6 6 7 8 10 11 9 8 7 7 7 9 11 13 15 16 16 13 10 8 5 3 9 14 12 10 12 13 12 14 15 15 16 15 16 16 16 16 17 18 20 21
28 27 26 25 24 23 24 23 22 21 21 19 17 17 16 15 15 15 16 15 15 14 13 13 13 12 11 11 11 11 10 9 8 8 8 9 9 9 10 9 9 8 8 8 9 9 10 11 11 10 9 7 5 5 7 10 12 15 15 16 16 14 11 8 10 13 11 10 12 14 12 11 14 15 17 17 16 17 17 17 17 17 18 19 20
28 29 27 25 23 24 23 22 21 21 20 19 18 17 18 18 17 17 17 16 16 16 14 13 13 13 13 12 10 8 8 8 9 9 10 11 11 11 11 11 10 10 10 11 11 11 11 12 11 10 11 10 7 5 6 8 10 13 14 15 15 14 15 18 22 16 9 11 13 12 12 12 13 15 17 17 18 19 19 19 19 18 18 19 19
29 28 27 25 24 24 23 21 21 21 21 20 19 19 20 20 19 18 18 17 17 16 16 15 13 11 10 9 8 9 10 10 12 13 13 13 13 13 13 13 12 12 12 12 11 11 12 12 11 10 11 12 11 9 8 6 6 8 10 12 11 12 15 20 24 18 13 15 13 12 13 11 10 13 15 16 18 19 19 20 20 20 20 19 19
28 27 25 24 23 22 22 21 21 22 22 21 20 20 19 19 19 18 17 16 16 16 15 14 11 9 7 7 8 10 12 13 14 15 14 13 13 13 13 13 13 12 10 9 8 8 9 9 10 11 11 12 13 13 12 9 7 6 4 5 5 8 14 16 17 19 20 18 14 14 13 10 9 11 12 14 16 18 19 21 20 21 21 21 21
27 25 23 23 23 21 21 21 21 21 21 21 21 21 20 19 18 17 16 15 14 15 14 12 10 8 7 8 8 10 12 14 13 13 12 11 11 11 10 9 9 8 7 7 7 7 8 8 9 11 12 12 14 15 15 14 11 10 8 7 6 6 9 10 13 17 21 21 20 18 16 14 12 11 12 12 13 15 16 18 19 20 22 22 21
26 24 23 24 23 22 22 22 22 21 21 21 21 21 20 20 19 18 17 16 15 15 14 12 10 8 8 8 10 12 13 12 11 9 8 7 7 7 6 5 5 6 5 6 7 6 7 8 8 10 11 12 13 14 15 15 15 13 13 12 12 11 10 8 10 13 16 21 26 25 23 21 17 14 13 11 11 13 14 15 17 19 21 23 23
25 24 24 24 23 22 22 22 23 22 21 21 20 20 20 19 19 19 20 19 18 16 14 11 9 8 8 10 12 13 11 10 8 6 4 2 2 2 3 3 4 4 4 4 5 5 6 7 8 9 10 10 11 12 13 13 13 14 15 14 12 12 10 9 11 11 12 16 21 24 26 27 25 21 18 15 14 13 14 15 16 18 21 24 25
26 25 25 25 24 24 23 23 23 23 22 21 21 20 19 19 19 20 21 20 18 15 13 11 9 9 9 11 11 10 8 6 4 3 3 1 1 1 1 1 0 1 2 4 4 5 7 7 8 10 10 9 9 10 11 11 11 12 12 12 12 12 11 12 14 14 14 14 17 21 23 26 27 27 24 22 20 17 16 15 15 19 21 22 24
27 27 26 26 26 24 24 24 23 23 23 22 21 21 20 20 21 21 19 18 16 14 12 11 10 10 9 10 9 8 7 4 1 3 3 2 2 2 2 2 2 2 3 4 4 6 7 8 9 9 9 9 9 9 9 10 10 10 10 10 11 12 13 15 17 16 16 17 19 22 24 25 26 27 26 24 21 19 18 15 13 17 19 20 23
Wind_Direction
169 171 175 167 170 167 161 150 142 135 126 130 135 137 132 127 123 121 121 119 118 116 115 114 114 114 112 108 106 104 102 102 101 101 100 99 96 95 95 92 90 86 87 87 84 80 75 75 75 76 76 73 73 78 84 85 83 79 75 70 64 61 59 63 70 68 61 55 50 46 60 94 104 105 99 97 93 85 80 74 71 80 88 90 89
166 170 178 167 170 170 164 152 142 136 129 132 136 139 134 129 126 124 124 121 120 117 116 114 113 113 111 108 106 104 102 102 101 102 101 100 98 97 94 92 90 87 87 86 84 77 74 76 75 76 73 69 69 73 81 83 85 88 88 83 80 78 75 74 72 67 61 56 51 46 53 84 103 112 106 100 95 80 71 69 62 65 73 77 76
168 167 175 168 167 170 165 154 143 135 130 132 137 140 135 131 128 127 126 123 121 118 117 115 114 113 111 109 106 105 103 103 102 100 100 100 97 95 93 91 90 89 89 87 82 72 72 77 77 78 72 66 66 70 74 76 82 89 97 98 95 87 80 74 66 61 59 56 53 49 49 64 93 108 106 101 93 71 62 58 53 56 62 65 66
177 170 173 170 164 168 166 155 144 136 132 134 138 139 136 132 130 129 128 125 123 121 119 116 116 115 112 110 107 106 104 105 104 102 101 100 97 93 90 89 88 87 88 84 72 59 66 80 83 80 71 68 69 70 73 75 81 91 99 99 95 87 81 75 67 60 55 53 52 52 48 48 72 94 100 99 83 62 58 54 51 54 57 60 62
183 175 174 171 163 164 165 156 144 137 134 135 138 139 136 134 132 132 130 127 125 123 121 119 119 116 114 112 109 107 105 106 105 106 104 102 98 91 87 87 86 83 80 75 63 55 67 84 85 79 72 72 73 76 79 81 88 98 101 98 92 86 82 77 72 65 58 51 46 52 49 38 48 86 96 99 85 66 60 54 53 57 56 55 56
187 179 175 172 163 160 163 155 144 138 136 136 139 139 137 135 135 133 131 129 126 124 124 124 122 119 117 114 112 110 108 108 107 108 105 103 99 94 92 87 81 75 71 66 60 63 75 85 83 79 77 77 79 82 86 89 97 104 102 96 91 85 81 75 71 68 66 60 45 45 44 34 38 75 90 92 87 79 71 62 56 60 59 52 51
192 182 176 173 164 159 161 153 144 140 137 138 140 140 138 138 138 135 133 130 128 127 128 128 126 123 120 118 116 113 112 111 110 108 105 103 99 98 94 78 67 64 67 67 67 77 84 85 84 82 82 82 83 86 92 96 101 104 101 96 91 85 80 76 74 74 83 87 64 44 41 38 51 73 80 80 76 74 73 70 61 60 59 53 50
189 184 176 171 165 159 158 152 145 142 139 140 142 142 141 142 140 137 135 132 131 131 132 131 128 125 123 122 119 117 116 114 112 109 106 102 97 91 78 62 56 60 68 76 84 91 91 89 87 86 85 86 88 89 94 101 105 104 101 98 94 90 86 84 82 83 93 89 66 52 48 49 63 75 77 76 72 67 65 69 64 58 59 56 52
181 181 174 168 164 158 156 151 146 143 142 143 145 144 144 144 141 138 136 135 136 134 134 132 130 128 127 126 123 121 119 116 114 111 106 99 87 70 58 54 59 71 80 89 96 98 96 94 91 89 88 89 91 93 98 105 107 104 101 99 96 93 91 89 87 84 81 67 49 48 53 58 66 69 71 72 70 66 60 62 62 59 60 58 56
178 178 172 167 162 157 154 150 148 146 144 145 146 146 146 145 142 139 139 139 139 137 134 133 132 131 130 128 126 124 121 118 115 113 106 92 76 60 56 63 75 88 96 102 102 102 101 98 95 92 90 91 93 97 106 111 109 105 102 98 94 91 89 87 88 85 77 59 26 33 43 57 63 63 65 66 66 65 59 58 61 60 58 56 56
177 177 170 165 161 156 154 151 150 148 146 147 148 149 148 146 143 142 141 142 140 138 136 136 136 133 131 130 128 127 125 123 121 117 104 87 75 70 74 84 95 103 108 110 107 106 105 102 98 94 93 95 96 100 111 115 111 106 102 98 95 91 89 87 88 83 78 65 32 33 35 45 55 55 56 58 59 60 52 48 50 50 48 45 46
174 175 168 164 161 155 154 151 152 151 149 150 151 152 150 147 145 144 144 143 141 140 140 140 139 136 135 134 131 130 129 127 126 118 108 97 89 90 96 104 109 115 118 116 113 112 110 106 101 99 99 99 99 103 113 117 112 108 105 102 100 97 94 91 86 70 55 44 41 40 36 37 42 39 36 42 49 49 43 35 33 30 28 21 16
171 171 166 165 159 155 153 151 154 153 152 153 153 153 151 148 147 147 146 144 143 143 144 143 141 140 139 139 136 132 130 125 122 119 114 109 106 108 110 116 121 123 125 122 121 119 115 110 107 105 104 104 102 103 112 118 115 111 109 106 105 103 99 95 90 67 31 27 39 36 31 32 31 29 17 18 26 28 25 17 15 5 0 353 346
168 166 165 165 159 155 153 153 155 154 155 155 155 155 153 151 150 148 147 146 146 146 146 145 143 143 143 141 136 128 124 119 118 118 116 115 112 113 117 125 130 130 131 128 128 124 120 115 113 110 107 107 104 103 110 116 115 111 111 111 110 108 102 97 99 86 24 12 23 18 21 26 20 19 5 357 359 359 353 342 344 337 335 331 331
165 166 166 165 160 155 153 155 157 157 158 158 158 158 155 153 151 149 148 149 148 148 147 145 146 146 146 139 131 121 117 116 116 117 117 119 116 116 122 131 136 136 136 135 134 129 124 121 118 115 110 110 107 106 108 112 112 110 114 114 112 110 105 103 108 98 9 335 352 7 16 18 8 5 357 348 340 335 329 324 322 317 316 314 319
166 168 170 167 162 156 154 156 157 159 160 161 161 158 155 152 150 149 149 150 148 149 147 148 150 148 146 137 129 116 111 112 111 114 114 117 117 117 123 137 142 141 141 141 140 135 130 128 126 121 117 114 112 111 109 110 110 113 116 116 115 114 111 112 113 106 335 313 344 15 5 2 2 357 353 345 335 329 321 316 313 308 306 303 306
166 169 174 171 164 157 155 156 157 159 160 161 160 156 155 152 150 150 149 151 149 149 148 148 149 146 146 138 125 113 110 111 111 111 110 112 113 114 121 138 147 146 147 147 146 142 137 135 133 129 125 122 119 117 113 109 106 111 117 119 120 116 116 116 119 138 274 304 325 347 342 345 349 350 350 344 339 333 324 317 313 307 303 301 301
166 171 176 174 166 160 157 156 157 159 160 160 157 155 154 153 151 151 152 153 151 151 149 147 147 147 146 129 115 110 110 112 114 114 111 111 111 112 116 131 150 154 153 154 153 149 146 144 141 138 134 130 126 125 121 115 107 109 114 117 116 112 113 110 118 164 239 289 309 327 331 335 338 343 346 343 341 338 330 321 315 308 304 301 299
168 171 177 178 171 163 158 157 159 160 161 161 158 156 154 154 154 154 154 153 152 152 150 147 141 136 127 114 109 108 108 110 111 112 112 110 107 108 110 120 145 159 161 161 162 160 157 154 152 152 150 146 137 131 126 121 113 110 109 105 105 107 106 101 118 186 267 304 314 326 325 327 334 340 342 339 339 338 332 324 317 312 309 304 298
170 173 178 179 175 166 160 159 161 161 162 163 162 158 154 154 154 156 156 154 153 149 146 144 135 127 120 111 107 104 105 106 102 104 109 107 105 105 109 112 127 155 170 172 173 174 172 168 170 172 171 170 157 144 132 124 110 101 93 80 79 99 111 121 126 155 318 311 310 316 317 321 330 336 338 337 337 337 333 325 321 316 313 309 303
172 177 179 181 177 169 164 163 163 163 164 165 165 158 154 153 153 158 158 155 151 147 145 140 135 130 120 111 105 101 103 101 94 97 105 106 107 108 113 112 116 138 165 181 185 185 186 188 192 203 208 212 212 182 149 134 119 89 58 28 347 332 274 155 137 107 298 296 301 304 308 313 320 326 330 334 335 336 334 327 324 321 318 313 307
173 178 179 180 179 173 169 168 164 164 165 166 165 158 155 155 155 159 158 154 149 146 143 135 134 130 120 113 104 99 104 98 92 94 97 97 98 101 110 113 114 125 146 170 188 193 196 206 214 229 241 252 258 258 245 211 182 113 39 356 336 318 302 269 210 221 283 291 297 299 303 307 311 315 320 329 332 334 335 331 328 325 324 320 312
172 175 175 176 178 175 170 169 165 163 164 164 165 160 159 159 159 160 156 155 151 147 142 133 133 130 123 120 114 121 116 98 97 102 92 89 89 87 95 103 110 118 133 150 171 189 197 210 221 237 252 262 263 265 260 253 253 256 348 342 337 320 307 297 256 243 291 290 293 297 300 303 305 308 313 322 325 326 332 333 332 328 327 324 317
167 171 168 169 175 174 171 170 166 163 162 161 164 164 162 161 159 158 156 155 151 149 144 135 136 138 136 126 120 138 115 91 87 95 85 85 86 76 72 75 94 104 109 134 160 181 195 215 226 246 268 283 282 279 273 266 261 264 313 330 335 333 319 299 270 265 294 294 297 298 298 298 301 305 307 310 315 319 326 330 331 330 329 327 321
166 173 168 168 173 173 170 167 162 158 158 159 162 165 164 161 158 156 155 153 151 151 149 147 151 151 153 151 142 126 109 90 63 58 83 97 82 59 41 31 51 70 46 51 142 182 94 350 325 332 342 346 349 327 305 298 284 286 318 326 321 326 326 304 285 279 291 296 297 296 296 296 298 301 300 301 307 312 317 324 328 328 328 330 327
172 180 175 172 171 169 165 159 151 148 152 156 158 160 164 162 157 155 154 153 153 157 159 160 161 154 157 165 145 145 139 119 102 75 123 137 96 56 27 15 30 21 6 18 352 213 333 348 323 320 332 352 12 4 345 338 320 314 324 324 315 310 310 306 302 284 280 291 292 291 292 291 293 295 295 295 300 303 307 315 320 323 324 328 329
178 181 177 171 167 168 162 153 145 138 141 148 151 150 155 160 158 155 153 156 157 161 161 155 161 159 158 163 150 160 165 142 138 159 158 180 38 56 14 345 356 357 354 352 342 324 324 329 321 313 317 322 335 344 332 329 321 314 314 315 314 308 298 299 308 296 279 279 282 285 287 285 288 290 290 292 295 296 299 306 312 316 317 321 326
179 178 175 170 167 170 161 151 141 131 131 138 143 139 141 149 156 157 155 157 154 152 152 147 171 184 168 154 156 168 175 161 153 163 284 312 319 326 313 320 333 343 342 338 341 336 323 318 321 319 316 310 303 302 300 304 309 306 307 305 303 305 298 290 295 294 286 280 276 277 280 281 283 284 285 289 293 294 296 300 305 308 309 313 319
178 176 176 172 170 168 155 146 137 127 125 130 133 132 132 132 143 153 153 149 139 144 159 164 186 206 182 160 165 177 179 173 162 156 187 233 265 281 290 301 312 317 320 324 325 319 302 293 297 302 302 297 293 290 278 277 277 277 288 293 292 298 299 292 289 287 286 285 282 279 277 278 279 281 283 287 291 292 294 297 299 303 303 304 309
180 176 176 172 166 158 145 136 130 123 128 135 134 131 135 137 140 144 148 150 151 165 185 200 219 227 189 169 175 185 180 181 172 176 206 230 248 259 257 256 270 282 297 307 305 300 290 283 281 284 288 287 286 284 273 267 262 258 263 273 280 288 296 299 298 292 286 285 285 286 285 283 282 283 285 286 287 288 291 293 296 299 298 299 301
182 177 173 164 152 141 134 133 131 128 137 147 147 144 147 153 154 150 154 162 169 179 192 213 224 208 183 174 177 180 183 210 204 216 235 258 265 256 241 239 256 275 291 299 303 306 303 299 295 292 294 293 289 290 285 274 267 266 266 266 270 279 287 295 298 294 291 289 288 289 289 289 288 288 290 290 287 285 287 291 295 296 294 296 297
179 174 160 146 136 131 134 138 138 139 145 154 159 159 160 163 162 157 161 167 174 184 197 213 205 180 174 174 170 171 197 227 258 281 258 262 257 242 240 241 257 277 293 303 311 311 305 303 302 300 301 298 297 298 292 281 274 273 273 271 271 272 277 285 290 288 286 286 289 291 291 290 289 290 292 294 290 284 283 288 292 292 291 294 295
160 149 133 125 127 130 137 141 145 151 155 159 166 168 169 171 166 160 168 173 179 192 201 203 188 168 168 171 168 177 183 229 264 272 253 232 205 217 236 250 260 274 295 306 310 309 305 305 304 306 306 306 307 304 298 294 288 284 284 283 277 273 274 276 280 283 282 281 285 289 291 290 286 287 291 294 293 287 282 283 287 288 290 293 294
133 131 129 127 127 135 145 143 148 157 161 167 173 175 173 174 171 170 177 178 180 190 191 184 172 162 170 172 173 179 152 186 241 250 235 199 198 199 184 219 271 301 311 313 312 313 312 309 311 313 311 312 313 311 308 305 301 297 297 295 288 283 282 280 277 278 280 280 282 284 287 289 289 290 291 291 293 291 286 282 284 288 289 290 291
140 148 153 141 136 148 155 152 156 161 169 174 171 170 170 172 174 175 175 171 172 176 171 165 169 173 181 176 169 166 152 164 180 3 260 220 219 214 214 224 275 313 315 321 320 317 314 312 314 313 312 313 314 314 311 308 307 308 307 305 301 295 293 292 288 283 282 281 282 283 286 290 292 293 291 289 291 293 290 284 283 289 290 288 287
159 151 150 146 149 159 161 165 168 168 177 174 164 164 170 173 171 168 165 163 168 167 160 161 171 178 179 176 172 161 152 156 164 152 221 238 253 274 268 275 330 321 318 324 320 314 312 314 313 312 312 313 314 314 312 309 308 309 310 309 306 304 302 299 296 292 289 288 288 287 286 287 290 291 291 290 290 292 293 289 284 285 287 287 285
156 148 149 154 164 167 167 172 174 176 180 172 164 169 177 174 163 161 164 164 165 163 159 161 168 175 172 169 165 153 150 155 170 187 201 243 267 277 279 311 326 315 319 321 314 309 309 311 309 309 310 312 315 315 312 309 307 309 309 309 309 308 308 308 308 304 300 298 297 296 295 294 294 295 296 296 295 294 294 291 284 280 282 283 280
160 165 164 167 170 167 169 174 174 177 178 168 166 175 182 174 157 160 167 163 163 164 161 161 165 168 164 162 155 145 151 151 160 202 214 238 263 276 287 318 316 307 309 307 298 298 305 306 307 310 312 314 316 314 315 313 312 314 313 312 314 314 313 312 313 316 315 314 312 312 311 310 309 308 305 303 300 297 296 293 284 279 281 280 276
165 170 168 168 168 167 169 170 172 176 174 165 165 175 179 168 155 162 169 162 162 165 162 159 158 156 157 158 149 150 154 149 175 216 220 240 252 262 288 307 297 286 281 284 289 301 307 306 307 312 316 321 321 319 321 318 319 321 318 318 320 322 323 321 324 333 340 339 334 330 327 322 317 314 311 309 306 302 301 299 292 283 282 280 275
166 166 167 168 167 166 165 168 173 175 171 164 164 171 174 164 158 167 168 160 160 164 161 156 153 148 151 154 150 156 151 152 195 211 206 231 242 244 261 269 265 262 262 279 297 308 311 310 313 316 320 327 331 333 331 326 325 322 320 325 333 336 335 337 347 356 353 342 335 334 333 328 325 323 320 317 314 310 308 306 301 293 287 282 278
164 165 168 168 166 164 165 170 174 173 170 167 165 170 175 166 162 169 167 159 157 159 155 151 151 143 143 156 163 161 151 152 177 186 196 215 226 234 241 241 245 252 264 278 286 294 299 301 305 309 316 327 340 348 339 333 332 329 329 334 344 355 354 356 13 359 338 334 338 344 341 335 336 337 332 326 319 315 314 311 305 298 291 286 283
164 166 170 169 168 166 168 173 173 169 171 172 168 169 172 165 163 164 159 153 150 151 149 146 146 145 151 167 173 170 170 178 185 186 199 215 221 231 239 242 245 251 260 264 267 275 279 284 291 298 307 319 339 348 337 337 340 337 338 339 345 1 12 18 358 336 332 334 348 349 344 341 339 340 335 331 327 321 319 316 312 305 296 289 284
166 168 172 173 171 169 172 176 171 169 174 175 170 169 167 164 164 159 151 150 148 147 148 147 148 153 163 169 165 168 181 199 212 209 213 221 225 234 243 250 255 258 262 261 262 268 273 277 284 294 300 307 328 335 326 334 340 339 342 344 347 355 2 348 324 334 345 343 346 345 342 341 338 338 336 333 332 329 324 319 317 314 305 296 290
168 169 174 175 173 172 175 176 172 171 176 172 169 170 163 160 161 154 147 150 150 147 149 153 158 168 176 178 180 196 214 230 243 240 234 234 236 241 246 253 260 267 271 267 263 261 265 272 277 288 297 303 311 314 318 330 339 345 354 354 350 353 353 336 326 334 348 336 339 345 343 340 337 336 335 334 335 335 332 326 322 318 311 306 301
170 172 176 176 175 176 177 176 175 175 175 171 169 169 160 156 157 152 150 152 152 150 150 156 166 177 186 196 213 235 245 248 252 250 248 246 245 246 249 255 261 267 269 266 264 261 261 268 276 287 295 301 304 303 304 312 326 340 1 7 360 353 346 337 332 329 326 330 337 341 342 346 345 334 329 333 336 336 334 331 329 325 317 310 307
171 173 175 176 177 178 177 176 178 177 174 170 168 165 158 156 156 155 155 156 156 153 152 159 170 180 196 219 231 243 249 250 252 252 251 248 245 245 246 251 257 261 263 267 273 274 275 277 283 289 292 295 297 296 292 288 287 288 318 1 2 346 339 342 342 328 319 323 327 330 331 334 337 332 330 336 337 335 331 328 327 328 325 317 310
173 172 172 176 179 178 175 176 180 180 173 167 164 161 159 159 157 156 157 160 165 162 159 165 174 189 214 233 242 248 249 249 249 246 246 245 242 243 244 246 252 257 264 280 289 297 302 299 293 293 295 296 295 296 294 290 287 277 271 276 274 293 317 338 350 338 326 316 308 312 315 314 324 329 329 334 336 333 326 322 320 322 325 323 318
173 171 173 178 179 178 177 177 180 180 171 164 162 161 162 161 158 158 159 162 169 169 167 172 181 199 219 233 245 251 245 239 238 236 239 243 240 242 243 241 250 260 269 286 301 307 305 304 301 300 304 308 308 308 305 302 302 299 294 290 283 281 287 308 327 335 334 319 307 305 302 300 305 312 313 315 324 328 325 325 325 322 322 322 320
172 172 176 176 176 179 180 177 177 174 168 164 163 162 165 164 160 160 161 162 166 166 168 177 188 202 220 235 245 247 236 226 230 229 220 221 223 230 243 246 258 277 289 311 334 324 309 312 314 312 319 324 325 323 319 316 316 316 315 313 310 305 304 311 316 323 338 332 319 314 308 302 298 295 297 299 301 309 319 328 333 332 328 322 317
174 175 176 175 176 180 179 175 174 170 167 167 164 161 164 163 160 163 166 164 160 161 169 183 195 208 226 240 246 247 239 229 221 199 170 164 194 196 223 247 328 5 359 5 357 329 325 330 327 330 337 336 333 331 328 324 322 322 323 326 332 337 341 346 348 349 351 344 332 325 321 316 308 301 301 303 299 298 304 314 330 337 336 329 320
175 177 176 174 174 177 177 173 172 170 169 168 165 164 165 164 163 164 164 159 156 166 181 192 204 215 227 242 250 250 243 241 190 158 147 138 142 117 97 88 60 31 16 5 346 335 335 334 336 343 343 336 335 338 336 332 332 335 339 347 1 10 9 2 357 355 352 343 332 327 325 323 316 310 309 310 307 304 300 298 311 325 331 334 333